STARLINK-31223, 58865

Orbit data source: Space-Track

STARLINK-31223, 58865 is a payload satellite owned by SpaceX/Seattle (US) in LEO that was launched on Mon, 29 Jan 2024 UTC via an FALCON 9 launch vehicle from the Air Force Eastern Test Range (AFETR). Payload-class satellites include a variety of spacecraft equipped with specific instruments for various scientific and technological missions. These include communications satellites like Starlink; space stations such as the ISS; scientific satellites like the Hubble; Earth observation satellites from companies like Planet Labs, Umbra, and HawkEye 360; GPS; miniature CubeSats for education and research; and military/defense satellites.

Loading next visibility...
Identifier
58865, 2024-019N
Orbit
LEO
Country
Flag of USUS
Related business
Manufacturer
SpaceX/Seattle
Mission
Operational Commercial Communications
Bus & Motor
STARLINK V2M, Unknown motor
Mass
730 kg wet, ~700 kg dry
Launch date (UTC)
2024-01-29 (2 years ago)
Launch vehicle
FALCON 9
Launch site
Air Force Eastern Test Range (AFETR)
Object type
Payload
Rocket body
Debris
Shape & HBR
Box + 2 Pan, 17.7 m
Radar Cross Section
33.884 m², Large (>1 m²)

Expand to show TLE details & history
Last TLE update: 2 days ago

TLE from 2 days ago
0 STARLINK-31223
1 58865U 24019N   26171.29042659 -.00000542  00000-0 -10171-4 0  9999
2 58865  43.0012  29.5141 0001150 296.9554  63.1180 15.27567792134753
Epoch: 2026-06-20T06:58Z
TLE epoch observation values (Epoch: 2026-06-20T06:58:12.857Z)
Latitude
-0.00002°
Longitude
16.45334°
Altitude
482.505 km
Speed
7.626 km/s
True Right ascension
01h 58m 03s
True Declination
0° 00' 00"
Sunlit
Object was in daylight at epoch
Visualization orbit readout
Latitude
Unknown
Longitude
Unknown
Altitude
Unknown
Speed
Unknown
Apparent Right ascension
Unknown
Apparent Declination
Unknown
Sunlit
N/A
Visualization observer readout
Local Sidereal Time
21:25:37
Azimuth
Unknown
Elevation
Unknown
Doppler factor
Unknown
Orbital elements
Apogee altitude
485.82 km
Perigee altitude
484.241 km
Semi-major axis
6,863.168 km
Eccentricity
0.00012
Inclination
43.0012°
RAAN
29.5141°
Arg. of periapsis
296.9554°
True anomaly
63.12975°
Mean anomaly
63.118°
Eccentric anomaly
63.12388°
Mean motion
3.8173 °/min
Orbital period
94.31 mins
BSTAR
-0.000010171
Loading maneuver chart data...
Computing Atmospheric mass density...
Loading historical data...
Loading historical data...
Loading historical data...
Loading historical data...
Loading historical data...
Loading historical data...
Loading historical data...

Documentation

Showing up to 5 results
|